PSC801 CYHZ-CYGR

Flight info

Callsign PSC801
Flight time 0h 44m
Altitude 19000
Route KATLO
Aircraft SF34/M-SDFGR/S

Departure

Time 2026-05-03 23:54
Airport Halifax / Stanfield International Airport (CYHZ)

Arrival

Time 2026-05-04 00:39
Airport Îles-de-la-Madeleine Airport (CYGR)
Time Latitude Longitude Altitude Speed Heading
2026-05-03 23:37 44.88344 -63.51512 447 ft 0 kts 305°
2026-05-03 23:44 44.88345 -63.51512 447 ft 0 kts 306°
2026-05-03 23:45 44.88345 -63.51513 447 ft 0 kts 306°
2026-05-03 23:45 44.88337 -63.51498 448 ft 2 kts 304°
2026-05-03 23:45 44.88328 -63.51481 448 ft 2 kts 304°
2026-05-03 23:45 44.88319 -63.51464 449 ft 2 kts 304°
2026-05-03 23:46 44.88311 -63.51446 449 ft 2 kts 304°
2026-05-03 23:46 44.88302 -63.51429 449 ft 2 kts 304°
2026-05-03 23:46 44.88294 -63.51412 450 ft 2 kts 304°
2026-05-03 23:46 44.88284 -63.51395 450 ft 2 kts 313°
2026-05-03 23:47 44.88276 -63.51386 450 ft 2 kts 339°
2026-05-03 23:47 44.88261 -63.51384 450 ft 2 kts 14°
2026-05-03 23:47 44.88248 -63.51394 450 ft 2 kts 36°
2026-05-03 23:47 44.88240 -63.51402 450 ft 1 kts 35°
2026-05-03 23:48 44.88239 -63.51403 450 ft 0 kts 34°
2026-05-03 23:50 44.88240 -63.51402 450 ft 0 kts 33°
2026-05-03 23:50 44.88244 -63.51398 450 ft 4 kts 33°
2026-05-03 23:50 44.88286 -63.51358 451 ft 7 kts 32°
2026-05-03 23:50 44.88361 -63.51281 452 ft 13 kts 36°
2026-05-03 23:51 44.88391 -63.51173 454 ft 14 kts 111°
2026-05-03 23:51 44.88329 -63.51037 458 ft 18 kts 107°
2026-05-03 23:51 44.88327 -63.50847 462 ft 19 kts 85°
2026-05-03 23:51 44.88336 -63.50704 465 ft 16 kts 84°
2026-05-03 23:52 44.88350 -63.50499 471 ft 21 kts 83°
2026-05-03 23:52 44.88366 -63.50283 476 ft 21 kts 82°
2026-05-03 23:52 44.88335 -63.50097 480 ft 21 kts 121°
2026-05-03 23:52 44.88248 -63.49914 485 ft 24 kts 125°
2026-05-03 23:53 44.88140 -63.49703 485 ft 26 kts 122°
2026-05-03 23:53 44.88093 -63.49488 482 ft 22 kts 78°
2026-05-03 23:53 44.88116 -63.49398 482 ft 4 kts 36°
2026-05-03 23:53 44.88147 -63.49369 482 ft 6 kts 25°
2026-05-03 23:54 44.88193 -63.49387 483 ft 3 kts 296°
2026-05-03 23:54 44.88258 -63.49513 485 ft 57 kts 308°
2026-05-03 23:54 44.88655 -63.50310 511 ft 130 kts 310°
2026-05-03 23:54 44.89138 -63.51369 1160 ft 136 kts 312°
2026-05-03 23:55 44.89657 -63.52513 1939 ft 139 kts 315°
2026-05-03 23:55 44.90118 -63.53592 2793 ft 134 kts 316°
2026-05-03 23:55 44.90762 -63.54376 3484 ft 117 kts 349°
2026-05-03 23:55 44.91555 -63.54253 3801 ft 133 kts 30°
2026-05-03 23:56 44.92116 -63.53075 4156 ft 157 kts 58°
2026-05-03 23:56 44.92549 -63.51606 4468 ft 169 kts 61°
2026-05-03 23:56 44.92999 -63.50016 4784 ft 177 kts 62°
2026-05-03 23:56 44.93455 -63.48391 5147 ft 180 kts 63°
2026-05-03 23:57 44.93909 -63.46773 5528 ft 179 kts 64°
2026-05-03 23:57 44.94517 -63.45241 5889 ft 179 kts 53°
2026-05-03 23:57 44.95348 -63.43921 6253 ft 180 kts 46°
2026-05-03 23:57 44.96268 -63.42751 6601 ft 181 kts 42°
2026-05-03 23:58 44.97240 -63.41617 6901 ft 184 kts 42°
2026-05-03 23:58 44.98256 -63.40465 7167 ft 188 kts 43°
2026-05-03 23:58 44.99283 -63.39312 7443 ft 191 kts 42°
2026-05-03 23:58 45.00341 -63.38127 7716 ft 194 kts 42°
2026-05-03 23:59 45.01396 -63.36947 7993 ft 197 kts 42°
2026-05-03 23:59 45.02496 -63.35715 8146 ft 209 kts 42°
2026-05-03 23:59 45.03666 -63.34406 8393 ft 221 kts 42°
2026-05-03 23:59 45.04883 -63.33046 8671 ft 228 kts 43°
2026-05-04 00:00 45.06143 -63.31634 8954 ft 234 kts 43°
2026-05-04 00:00 45.07426 -63.30195 9242 ft 238 kts 43°
2026-05-04 00:00 45.08735 -63.28727 9509 ft 242 kts 43°
2026-05-04 00:00 45.10070 -63.27228 9771 ft 246 kts 42°
2026-05-04 00:01 45.11409 -63.25723 10061 ft 248 kts 43°
2026-05-04 00:01 45.12777 -63.24185 10347 ft 250 kts 42°
2026-05-04 00:01 45.14140 -63.22651 10628 ft 252 kts 43°
2026-05-04 00:01 45.15503 -63.21118 10926 ft 252 kts 42°
2026-05-04 00:02 45.16873 -63.19575 11275 ft 250 kts 43°
2026-05-04 00:02 45.18224 -63.18052 11612 ft 249 kts 43°
2026-05-04 00:02 45.19568 -63.16536 11941 ft 248 kts 43°
2026-05-04 00:02 45.20920 -63.15010 12284 ft 248 kts 43°
2026-05-04 00:03 45.22268 -63.13489 12623 ft 247 kts 43°
2026-05-04 00:03 45.23621 -63.11959 12975 ft 247 kts 43°
2026-05-04 00:03 45.24957 -63.10450 13303 ft 246 kts 43°
2026-05-04 00:03 45.26282 -63.08952 13631 ft 244 kts 43°
2026-05-04 00:04 45.27608 -63.07451 13955 ft 243 kts 43°
2026-05-04 00:04 45.28922 -63.05962 14309 ft 241 kts 44°
2026-05-04 00:04 45.30368 -63.04762 14632 ft 244 kts 27°
2026-05-04 00:04 45.31939 -63.03927 14973 ft 242 kts 25°
2026-05-04 00:05 45.33511 -63.03126 15272 ft 239 kts 25°
2026-05-04 00:05 45.35071 -63.02331 15593 ft 235 kts 25°
2026-05-04 00:05 45.36585 -63.01559 15918 ft 232 kts 25°
2026-05-04 00:05 45.38103 -63.00783 16234 ft 228 kts 25°
2026-05-04 00:06 45.39572 -63.00028 16534 ft 225 kts 26°
2026-05-04 00:06 45.41023 -62.99287 16872 ft 219 kts 26°
2026-05-04 00:06 45.42459 -62.98547 17225 ft 219 kts 26°
2026-05-04 00:06 45.43882 -62.97814 17560 ft 219 kts 26°
2026-05-04 00:07 45.45310 -62.97081 17895 ft 218 kts 26°
2026-05-04 00:07 45.46735 -62.96346 18137 ft 223 kts 26°
2026-05-04 00:07 45.48248 -62.95562 18151 ft 238 kts 26°
2026-05-04 00:07 45.49858 -62.94730 18168 ft 251 kts 25°
2026-05-04 00:08 45.51526 -62.93871 18207 ft 259 kts 25°
2026-05-04 00:08 45.53183 -62.93021 18583 ft 252 kts 26°
2026-05-04 00:08 45.54820 -62.92180 18929 ft 247 kts 26°
2026-05-04 00:08 45.56424 -62.91352 19281 ft 243 kts 26°
2026-05-04 00:09 45.57993 -62.90541 19630 ft 239 kts 26°
2026-05-04 00:09 45.59557 -62.89733 19982 ft 235 kts 27°
2026-05-04 00:09 45.61071 -62.88950 20319 ft 232 kts 27°
2026-05-04 00:09 45.62582 -62.88167 20558 ft 234 kts 27°
2026-05-04 00:10 45.64110 -62.87374 20800 ft 235 kts 27°
2026-05-04 00:10 45.65663 -62.86569 21046 ft 235 kts 27°
2026-05-04 00:10 45.66198 -62.86292 21129 ft 236 kts 27°
2026-05-04 00:10 45.67650 -62.85535 21208 ft 244 kts 27°
2026-05-04 00:11 45.69271 -62.84691 21221 ft 254 kts 27°
2026-05-04 00:11 45.70949 -62.83819 21221 ft 263 kts 27°
2026-05-04 00:11 45.72700 -62.82908 21224 ft 271 kts 27°
2026-05-04 00:11 45.74490 -62.81978 21218 ft 278 kts 27°
2026-05-04 00:12 45.76322 -62.81027 21219 ft 282 kts 27°
2026-05-04 00:12 45.78189 -62.80054 21226 ft 286 kts 27°
2026-05-04 00:12 45.80056 -62.79082 21227 ft 290 kts 27°
2026-05-04 00:12 45.81963 -62.78088 21238 ft 292 kts 27°
2026-05-04 00:13 45.83889 -62.77083 21249 ft 294 kts 27°
2026-05-04 00:13 45.85811 -62.76080 21243 ft 296 kts 27°
2026-05-04 00:13 45.87742 -62.75070 21251 ft 297 kts 27°
2026-05-04 00:13 45.89686 -62.74054 21256 ft 298 kts 27°
2026-05-04 00:14 45.91647 -62.73028 21243 ft 299 kts 27°
2026-05-04 00:14 45.93605 -62.72003 21231 ft 301 kts 27°
2026-05-04 00:14 45.95554 -62.70981 21242 ft 302 kts 27°
2026-05-04 00:14 45.97539 -62.69939 21252 ft 303 kts 27°
2026-05-04 00:15 45.99509 -62.68905 21245 ft 304 kts 27°
2026-05-04 00:15 46.01499 -62.67859 21264 ft 304 kts 27°
2026-05-04 00:15 46.03476 -62.66821 21254 ft 305 kts 27°
2026-05-04 00:15 46.05477 -62.65768 21259 ft 306 kts 27°
2026-05-04 00:16 46.07472 -62.64717 21257 ft 307 kts 27°
2026-05-04 00:16 46.09476 -62.63660 21257 ft 307 kts 27°
2026-05-04 00:16 46.11478 -62.62604 21172 ft 307 kts 27°
2026-05-04 00:16 46.13500 -62.61534 20852 ft 309 kts 27°
2026-05-04 00:17 46.15517 -62.60469 20565 ft 311 kts 27°
2026-05-04 00:17 46.17559 -62.59388 20264 ft 312 kts 27°
2026-05-04 00:17 46.19595 -62.58311 19969 ft 313 kts 27°
2026-05-04 00:17 46.21634 -62.57231 19672 ft 314 kts 27°
2026-05-04 00:18 46.23683 -62.56146 19377 ft 315 kts 27°
2026-05-04 00:18 46.25732 -62.55058 19089 ft 316 kts 26°
2026-05-04 00:18 46.27788 -62.53968 18795 ft 316 kts 26°
2026-05-04 00:18 46.29861 -62.52867 18493 ft 315 kts 26°
2026-05-04 00:19 46.31924 -62.51770 18196 ft 315 kts 26°
2026-05-04 00:19 46.33976 -62.50679 17908 ft 315 kts 26°
2026-05-04 00:19 46.36018 -62.49592 17620 ft 315 kts 26°
2026-05-04 00:19 46.38067 -62.48499 17324 ft 316 kts 26°
2026-05-04 00:20 46.40126 -62.47401 17033 ft 316 kts 26°
2026-05-04 00:20 46.42188 -62.46301 16748 ft 317 kts 26°
2026-05-04 00:20 46.44252 -62.45197 16446 ft 318 kts 26°
2026-05-04 00:20 46.46341 -62.44080 16148 ft 319 kts 26°
2026-05-04 00:21 46.48422 -62.42970 15889 ft 317 kts 26°
2026-05-04 00:21 46.50487 -62.41861 15555 ft 317 kts 25°
2026-05-04 00:21 46.52540 -62.40760 15239 ft 316 kts 24°
2026-05-04 00:21 46.54594 -62.39660 14958 ft 312 kts 25°
2026-05-04 00:22 46.56610 -62.38573 14619 ft 311 kts 24°
2026-05-04 00:22 46.58627 -62.37491 14307 ft 308 kts 24°
2026-05-04 00:22 46.60645 -62.36407 13958 ft 308 kts 24°
2026-05-04 00:22 46.62624 -62.35344 13630 ft 308 kts 25°
2026-05-04 00:23 46.64635 -62.34261 13303 ft 308 kts 26°
2026-05-04 00:23 46.66643 -62.33176 12985 ft 309 kts 25°
2026-05-04 00:23 46.68662 -62.32082 12616 ft 312 kts 27°
2026-05-04 00:23 46.70704 -62.30981 12302 ft 312 kts 29°
2026-05-04 00:24 46.72755 -62.29877 11984 ft 317 kts 25°
2026-05-04 00:24 46.74803 -62.28766 11667 ft 314 kts 27°
2026-05-04 00:24 46.76837 -62.27673 11315 ft 306 kts 25°
2026-05-04 00:24 46.78801 -62.26611 10970 ft 302 kts 26°
2026-05-04 00:25 46.80764 -62.25547 10599 ft 298 kts 27°
2026-05-04 00:25 46.82690 -62.24501 10247 ft 295 kts 27°
2026-05-04 00:25 46.84598 -62.23467 9886 ft 292 kts 28°
2026-05-04 00:25 46.86473 -62.22451 9593 ft 287 kts 30°
2026-05-04 00:26 46.88330 -62.21438 9279 ft 284 kts 29°
2026-05-04 00:26 46.90157 -62.20442 8965 ft 280 kts 30°
2026-05-04 00:26 46.91970 -62.19460 8589 ft 274 kts 28°
2026-05-04 00:26 46.93726 -62.18497 8219 ft 267 kts 32°
2026-05-04 00:27 46.95470 -62.17551 7832 ft 262 kts 30°
2026-05-04 00:27 46.97159 -62.16635 7487 ft 256 kts 30°
2026-05-04 00:27 46.98788 -62.15746 7126 ft 249 kts 31°
2026-05-04 00:27 47.00399 -62.14864 6772 ft 244 kts 32°
2026-05-04 00:28 47.01978 -62.14003 6397 ft 241 kts 32°
2026-05-04 00:28 47.03527 -62.13144 6000 ft 236 kts 30°
2026-05-04 00:28 47.05043 -62.12318 5632 ft 234 kts 31°
2026-05-04 00:28 47.06554 -62.11500 5212 ft 229 kts 31°
2026-05-04 00:29 47.08020 -62.10697 4827 ft 220 kts 30°
2026-05-04 00:29 47.09436 -62.09924 4464 ft 214 kts 31°
2026-05-04 00:29 47.10803 -62.09170 4160 ft 205 kts 31°
2026-05-04 00:29 47.12107 -62.08454 3941 ft 197 kts 30°
2026-05-04 00:30 47.13357 -62.07770 3761 ft 189 kts 30°
2026-05-04 00:30 47.14570 -62.07104 3614 ft 182 kts 31°
2026-05-04 00:30 47.15724 -62.06470 3481 ft 177 kts 31°
2026-05-04 00:30 47.16908 -62.05804 3369 ft 194 kts 30°
2026-05-04 00:31 47.18238 -62.05059 3298 ft 216 kts 29°
2026-05-04 00:31 47.19680 -62.04269 3219 ft 218 kts 27°
2026-05-04 00:31 47.21057 -62.03521 3078 ft 206 kts 27°
2026-05-04 00:31 47.22375 -62.02802 2968 ft 197 kts 29°
2026-05-04 00:32 47.23624 -62.02116 2923 ft 187 kts 28°
2026-05-04 00:32 47.24811 -62.01461 2924 ft 177 kts 30°
2026-05-04 00:32 47.25935 -62.00845 2912 ft 165 kts 30°
2026-05-04 00:32 47.26961 -62.00283 2906 ft 153 kts 30°
2026-05-04 00:33 47.27934 -61.99747 2911 ft 145 kts 31°
2026-05-04 00:33 47.29762 -61.98727 2983 ft 152 kts 32°
2026-05-04 00:33 47.30805 -61.98126 2993 ft 171 kts 31°
2026-05-04 00:34 47.31964 -61.97466 2937 ft 184 kts 33°
2026-05-04 00:34 47.32921 -61.96236 2860 ft 185 kts 52°
2026-05-04 00:34 47.33669 -61.94877 3249 ft 141 kts 54°
2026-05-04 00:34 47.34259 -61.93771 2673 ft 142 kts 57°
2026-05-04 00:35 47.34748 -61.92828 2393 ft 142 kts 56°
2026-05-04 00:35 47.35314 -61.91741 2184 ft 139 kts 55°
2026-05-04 00:35 47.35903 -61.90604 1862 ft 137 kts 55°
2026-05-04 00:35 47.36473 -61.89516 1470 ft 127 kts 53°
2026-05-04 00:36 47.36958 -61.88580 1194 ft 114 kts 54°
2026-05-04 00:36 47.37439 -61.87658 1085 ft 115 kts 52°
2026-05-04 00:36 47.37939 -61.86687 1078 ft 123 kts 54°
2026-05-04 00:36 47.38472 -61.85647 969 ft 130 kts 52°
2026-05-04 00:37 47.38987 -61.84661 874 ft 108 kts 52°
2026-05-04 00:37 47.39515 -61.83646 853 ft 127 kts 53°
2026-05-04 00:37 47.39986 -61.82751 663 ft 109 kts 51°
2026-05-04 00:37 47.40450 -61.81864 494 ft 112 kts 51°
2026-05-04 00:38 47.40919 -61.80969 372 ft 111 kts 49°
2026-05-04 00:38 47.41370 -61.80076 310 ft 106 kts 49°
2026-05-04 00:38 47.41832 -61.79195 185 ft 101 kts 49°
2026-05-04 00:38 47.42231 -61.78426 21 ft 92 kts 46°
2026-05-04 00:39 47.42508 -61.77906 12 ft 38 kts 53°
2026-05-04 00:39 47.42552 -61.77739 14 ft 14 kts 144°
2026-05-04 00:39 47.42482 -61.77644 15 ft 12 kts 132°
2026-05-04 00:39 47.42446 -61.77585 17 ft 1 kts 92°
2026-05-04 00:40 47.42440 -61.77556 18 ft 6 kts 117°
2026-05-04 00:40 47.42423 -61.77508 19 ft 3 kts 111°
2026-05-04 00:40 47.42422 -61.77497 19 ft 0 kts 88°